This is the latest recevied weather packets stored in our database for station/object N2OCK. If no packets are shown the sender has not sent any weather packets the latest 10 day(s).
| Time | Temp. | Humidity | Pressure | Rain* | Wind** | Luminosity | Snow |
|---|---|---|---|---|---|---|---|
| 1777660829 | 17.78° C | 38% | 1011.5 hPa | 0 mm | - | 662 W/m² | - |
| 1777660526 | 16.67° C | 37% | 1011.6 hPa | 0 mm | - | 670 W/m² | - |
| 1777660222 | 17.22° C | 36% | 1011.6 hPa | 0 mm | - | 676 W/m² | - |
| 1777659919 | 16.67° C | 37% | 1011.8 hPa | 0 mm | - | 685 W/m² | - |
| 1777659616 | 16.67° C | 37% | 1011.6 hPa | 0 mm | - | 691 W/m² | - |
| 1777659314 | 17.22° C | 38% | 1011.6 hPa | 0 mm | - | 696 W/m² | - |
| 1777659010 | 16.67° C | 35% | 1011.9 hPa | 0 mm | - | 704 W/m² | - |
| 1777658708 | 16.67° C | 36% | 1011.8 hPa | 0 mm | - | 708 W/m² | - |
| 1777658404 | 16.11° C | 36% | 1011.9 hPa | 0 mm | - | 713 W/m² | - |
| 1777658101 | 16.11° C | 39% | 1011.9 hPa | 0 mm | - | 718 W/m² | - |
| 1777657797 | 16.67° C | 36% | 1011.9 hPa | 0 mm | - | 723 W/m² | - |
| 1777657495 | 16.67° C | 35% | 1011.9 hPa | 0 mm | - | 726 W/m² | - |
| 1777657192 | 16.67° C | 36% | 1012.1 hPa | 0 mm | - | 731 W/m² | - |
| 1777656890 | 16.67° C | 36% | 1012 hPa | 0 mm | - | 733 W/m² | - |
| 1777656585 | 16.67° C | 36% | 1012.1 hPa | 0 mm | - | 736 W/m² | - |
| 1777656281 | 16.11° C | 39% | 1012.1 hPa | 0 mm | - | 740 W/m² | - |
| 1777655977 | 16.11° C | 38% | 1012.1 hPa | 0 mm | - | 740 W/m² | - |
| 1777655673 | 15.56° C | 39% | 1012 hPa | 0 mm | - | 742 W/m² | - |
| 1777655370 | 16.11° C | 40% | 1012.1 hPa | 0 mm | - | 745 W/m² | - |
| 1777655067 | 16.11° C | 40% | 1012.2 hPa | 0 mm | - | 742 W/m² | - |
| 1777654765 | 16.11° C | 41% | 1012.2 hPa | 0 mm | - | 747 W/m² | - |
| 1777654462 | 15.56° C | 40% | 1012.2 hPa | 0 mm | - | 748 W/m² | - |
| 1777654160 | 15.56° C | 42% | 1012.2 hPa | 0 mm | - | 746 W/m² | - |
| 1777653857 | 15.56° C | 42% | 1012.4 hPa | 0 mm | - | 746 W/m² | - |
| 1777653554 | 15° C | 40% | 1012.4 hPa | 0 mm | - | 746 W/m² | - |
* Rain latest hour (hover to see other rain measurements)
** Current wind speed in m/s (hover to see current wind gust speed)